CW0526 Weather Reports


time (UTC)temp
C
wind
direction
speed
KPH
gust
KPH
rain 1hr
cm
rain 24hr
cm
rain mn
cm
humidity
%
barometer
mb
20260508141601 13 292 4.8 14.5 0.00 0.08 0.08 60 1017.2
20260508133601 13 237 6.4 14.5 0.00 0.08 0.08 62 1017.0
20260508133103 13 281 3.2 12.9 0.00 0.08 0.08 61 1017.1
20260508131601 14 241 3.2 11.3 0.00 0.08 0.08 61 1017.0
20260508124102 13 278 8.0 24.1 0.00 0.08 0.08 62 1016.8
20260508123601 13 226 6.4 14.5 0.00 0.08 0.08 61 1016.8
20260508121101 14 280 8.0 14.5 0.00 0.15 0.08 62 1016.7
20260508120602 13 80 4.8 11.3 0.00 0.15 0.08 64 1016.7
20260508114601 13 294 6.4 19.3 0.00 0.51 0.08 64 1016.6
20260508114101 13 263 8.0 16.1 0.00 0.51 0.08 64 1016.6
20260508113601 13 232 6.4 19.3 0.00 0.51 0.08 63 1016.5
20260508111101 13 277 6.4 12.9 0.00 0.51 0.08 65 1016.3
20260508110601 13 238 4.8 11.3 0.00 0.51 0.08 63 1016.3
20260508104601 13 294 4.8 9.7 0.00 0.51 0.08 66 1016.3
20260508103102 13 291 4.8 16.1 0.00 0.51 0.08 65 1016.3
20260508101602 13 284 4.8 12.9 0.00 0.51 0.08 64 1016.1
20260508101101 13 178 3.2 12.9 0.00 0.51 0.08 64 1016.1
20260508094602 13 281 9.7 19.3 0.00 0.51 0.08 67 1015.9
20260508093103 13 252 3.2 19.3 0.00 0.51 0.08 69 1015.7
20260508091602 12 299 4.8 16.1 0.00 0.51 0.08 71 1015.7
20260508091101 12 294 4.8 12.9 0.00 0.51 0.08 73 1015.6
20260508090103 11 264 4.8 12.9 0.00 0.51 0.08 74 1015.6
20260508084101 11 284 4.8 14.5 0.00 0.51 0.08 76 1015.4
20260508081601 10 275 1.6 4.8 0.00 0.51 0.08 81 1015.3
20260508081101 10 276 3.2 8.0 0.00 0.51 0.08 80 1015.3
20260508074601 10 292 3.2 4.8 0.00 0.51 0.08 83 1015.1
20260508073601 10 231 4.8 11.3 0.00 0.51 0.08 84 1015.0
20260508070601 9 201 1.6 3.2 0.00 0.51 0.08 87 1014.6
20260508064601 8 254 3.2 4.8 0.00 0.51 0.08 87 1014.3
20260508061101 8 251 1.6 4.8 0.00 0.51 0.08 88 1014.1
20260508054601 8 244 0.0 4.8 0.00 0.51 0.08 88 1013.7
20260508053103 8 245 1.6 8.0 0.00 0.51 0.08 88 1013.5
20260508051602 8 234 3.2 9.7 0.00 0.51 0.08 88 1013.4
20260508051102 8 265 1.6 4.8 0.00 0.51 0.08 88 1013.4
20260508041602 8 265 1.6 4.8 0.00 0.51 0.08 87 1012.9
20260508040602 8 248 0.0 4.8 0.00 0.51 0.08 87 1012.9
20260508034602 8 229 1.6 4.8 0.00 0.51 0.08 87 1012.8
20260508034102 8 220 1.6 4.8 0.00 0.51 0.08 87 1012.8
20260508033602 8 215 1.6 8.0 0.00 0.51 0.08 87 1012.7
20260508031602 8 230 3.2 8.0 0.00 0.51 0.08 87 1012.7
20260508024102 9 212 3.2 4.8 0.00 0.51 0.08 86 1012.5
20260508023602 9 209 1.6 9.7 0.00 0.51 0.08 87 1012.5
20260508023103 9 214 1.6 12.9 0.00 0.51 0.08 86 1012.5
20260508021602 8 228 1.6 8.0 0.00 0.51 0.08 86 1012.5
20260508021101 8 163 1.6 8.0 0.00 0.51 0.08 86 1012.5
20260508014601 8 197 1.6 8.0 0.00 0.51 0.08 85 1012.4
20260508014102 8 161 1.6 8.0 0.00 0.51 0.08 85 1012.4
20260508013602 8 160 0.0 8.0 0.00 0.51 0.08 85 1012.3
20260508013103 8 164 1.6 11.3 0.00 0.51 0.08 85 1012.3
20260508011102 8 168 3.2 12.9 0.03 0.51 0.08 85 1012.2
20260508010602 8 176 4.8 9.7 0.05 0.51 0.08 85 1012.3
20260508004602 8 179 6.4 12.9 0.08 0.51 0.08 84 1012.2
20260508003602 8 164 4.8 9.7 0.08 0.51 0.08 84 1012.2
20260508001602 8 160 1.6 9.7 0.05 0.48 0.05 83 1012.3
20260508000602 9 179 3.2 8.0 0.05 0.46 0.05 82 1012.4
20260507234102 9 168 8.0 16.1 0.00 0.43 0.00 80 1012.2
20260507233602 9 200 4.8 14.5 0.00 0.43 0.00 80 1012.1
20260507231102 9 158 8.0 16.1 0.00 0.43 0.00 80 1011.9
20260507230602 9 174 6.4 19.3 0.00 0.43 0.00 80 1011.9
20260507223603 9 153 6.4 14.5 0.00 0.43 0.43 80 1012.0
20260507223103 9 180 4.8 19.3 0.00 0.43 0.43 80 1012.0
20260507220104 9 175 8.0 22.5 0.00 0.43 0.43 80 1011.7
20260507213103 9 123 8.0 24.1 0.00 0.43 0.43 81 1011.6
20260507210104 10 178 9.7 19.3 0.00 0.43 0.43 80 1011.7
20260507204102 10 182 4.8 12.9 0.00 0.43 0.43 79 1011.7
20260507203602 10 172 8.0 24.1 0.00 0.43 0.43 78 1011.6
20260507201603 10 169 1.6 9.7 0.00 0.43 0.43 77 1011.6
20260507193104 11 156 3.2 14.5 0.00 0.43 0.43 74 1011.2
20260507191603 11 187 4.8 12.9 0.00 0.43 0.43 73 1011.1
20260507184602 12 170 9.7 19.3 0.00 0.43 0.43 70 1011.0
20260507183104 11 178 8.0 19.3 0.00 0.43 0.43 70 1011.0
20260507174602 12 181 4.8 11.3 0.00 0.43 0.43 66 1011.1
20260507174103 12 167 4.8 11.3 0.00 0.43 0.43 67 1011.1
20260507173603 12 164 4.8 9.7 0.00 0.43 0.43 67 1011.1
20260507173104 12 153 3.2 19.3 0.00 0.43 0.43 66 1011.2
20260507164103 13 178 9.7 22.5 0.00 0.43 0.43 62 1011.4
20260507161602 13 173 4.8 19.3 0.00 0.43 0.43 66 1011.3
20260507161102 13 175 8.0 14.5 0.00 0.43 0.43 66 1011.3
20260507160603 14 178 8.0 19.3 0.00 0.43 0.43 65 1011.3
20260507160104 14 295 4.8 19.3 0.00 0.43 0.43 66 1011.3
20260507151103 13 172 9.7 25.7 0.00 0.43 0.43 74 1011.3
20260507150105 13 124 9.7 24.1 0.00 0.43 0.43 74 1011.4
20260507144103 12 170 8.0 25.7 0.00 0.43 0.43 77 1011.7